[[{"header":{"parameterUnit":"m.s-1","parameterCategory":1,"la1":30.2991,"la2":30.254,"lo1":-89.0895,"lo2":-89.0444,"dy":0.0017,"dx":0.0017,"nx":28,"ny":28,"refTime":"2025-07-08T09:00:00:Z","depth":0,"parameterNumber":2,"parameterNumberName":"U-component_of_WINDS"},"data":[0,0,0,0,0,0,0,0,0,0,0,0,0,0,0,0,0,0,0,0,0,0,0,0,0,0,0,0,0,0,0,0,0,0,0,0,0,0,0,0,0,0,0,0,0,0,0,0,0,0,0,0,0,0,0,0,0,0,4.2303,4.2304,0,4.2413,4.2414,4.2415,4.2331,4.2327,4.2323,4.232,4.2435,4.2441,4.2447,0,0,0,0,0,0,0,0,0,0,0,0,0,4.2019,4.2025,4.2303,4.2304,4.2305,4.2412,4.2414,4.2416,4.2331,4.2327,4.2322,4.2318,4.2432,4.244,4.2448,0,0,0,0,0,0,0,0,0,0,0,0,0,4.2137,4.2027,4.2302,4.2276,4.2275,4.2412,4.2414,4.2416,4.2332,4.2327,4.2321,4.2316,4.243,4.2439,4.2449,4.2619,0,0,4.2479,4.2483,0,0,0,0,0,0,0,0,4.2131,4.2148,4.2279,4.2278,4.2277,4.2352,4.2356,4.2484,4.2333,4.2311,4.232,4.2313,4.2412,4.2423,4.2455,4.2624,4.2629,4.2479,4.2485,4.2489,4.2492,0,0,0,0,0,0,0,4.2123,4.2143,4.2346,4.2281,4.228,4.2259,4.2269,4.238,4.2391,4.2312,4.2306,4.232,4.241,4.2446,4.2457,4.2631,4.2479,4.2488,4.2494,4.2498,4.294,4.2946,0,0,0,0,0,0,4.2117,4.2136,4.2343,4.2349,4.2189,4.2268,4.228,4.2334,4.2389,4.2392,4.2325,4.2316,4.2432,4.2446,4.2461,4.2661,4.2489,4.2498,4.2504,4.2934,4.2941,4.2948,0,0,0,0,0,0,4.2111,4.2136,4.2338,4.2241,4.2265,4.2279,4.234,4.2339,4.2374,4.2399,4.24,4.236,4.2429,4.2447,4.2579,4.2664,4.2503,4.2512,4.2927,4.2936,4.2944,4.3064,0,0,0,0,0,0,4.2103,4.2135,4.22,4.2243,4.2271,4.2455,4.2345,4.2345,4.2391,4.2381,4.2432,4.2435,4.2426,4.2565,4.2589,4.2674,4.2519,4.292,4.2931,4.2942,4.3052,4.3075,4.3095,0,0,0,0,0,4.2094,4.223,4.2203,4.2229,4.2352,4.246,4.2476,4.2462,4.2399,4.2463,4.2478,4.2433,4.2651,4.2579,4.2605,4.2695,4.2914,4.2928,4.2941,4.3042,4.3071,4.3095,0,0,0,0,0,0,4.2198,4.2236,4.2206,4.2361,4.2408,4.2446,4.2527,4.2493,4.2559,4.2547,4.2527,4.2539,4.2677,4.2699,4.2619,4.286,4.2772,4.2791,4.2841,4.2868,4.2889,4.2881,4.2527,0,0,0,0,0,4.2238,4.2322,4.2351,4.2485,4.2509,4.2515,4.2561,4.2546,4.2594,4.2613,4.2638,4.2687,4.2765,4.2818,4.2892,4.3055,4.3063,4.3129,4.3151,4.3168,4.3185,4.3269,4.3298,4.2992,4.2991,4.2991,0,0,4.2324,4.2355,4.241,4.2506,4.2541,4.2627,4.2532,4.2629,4.2693,4.2628,4.2753,4.2773,4.2825,4.2973,4.3039,4.2995,4.3271,4.3185,4.3199,4.3206,4.3286,4.3315,4.3341,4.3001,4.2999,4.2997,0,0,4.2524,4.2557,4.267,4.2706,4.2758,4.276,4.2787,4.283,4.284,4.2964,4.2917,4.2992,4.3129,4.3168,4.3205,4.3416,4.3376,4.3441,4.3554,4.3636,4.366,4.3682,4.3755,4.3781,4.3457,4.3458,4.3458,0,4.2624,4.2753,4.2733,4.2832,4.2875,4.2819,4.2933,4.2968,4.3043,4.3074,4.3024,4.3192,4.3224,4.3378,4.3428,4.3462,4.3491,4.3435,4.3658,4.368,4.3699,4.3768,4.3796,4.3465,4.3464,4.3463,4.3463,0,4.2872,4.2961,4.3047,4.3118,4.317,4.3277,4.3273,4.3328,4.3307,4.3314,4.344,4.3476,4.3555,4.359,4.3572,4.3741,4.3712,4.3661,4.3572,4.3736,4.3801,4.3827,4.3475,4.3473,4.3471,4.3469,0,0,4.3143,4.3198,4.323,4.326,4.3312,4.3381,4.3484,4.3559,4.3606,4.3659,4.3743,4.3859,4.3811,4.3853,4.3839,4.3911,4.4072,4.3851,4.3852,4.3889,4.4258,4.4295,4.4326,4.4046,4.4051,4.4055,4.4252,0,4.3343,4.3521,4.3505,4.3673,4.3754,4.37,4.3789,4.383,4.3839,4.3909,4.3918,4.3999,4.3931,4.3956,4.4025,4.4038,4.4146,4.4024,4.4124,4.4128,4.4111,4.436,4.4401,4.4585,4.4278,4.4282,4.4285,0,4.3602,4.3661,4.3837,4.3873,4.3907,4.3987,4.4053,4.4121,4.4166,4.4166,4.4212,4.4184,4.4286,4.4195,4.4334,4.4251,4.4291,4.4303,4.431,4.4318,4.4216,4.4374,4.4644,4.4671,4.4325,4.4322,4.4319,0,4.3779,4.3903,4.4023,4.4051,4.4097,4.4154,4.4176,4.4215,4.426,4.4318,4.4347,4.4417,4.4455,4.4509,4.4499,4.4434,4.4641,4.4549,4.4643,4.4643,4.4689,4.4686,4.4968,4.4717,4.4716,4.4716,4.4715,0,4.4005,4.4114,4.4103,4.4177,4.4297,4.4277,4.4396,4.4411,4.4446,4.4521,4.4479,4.4551,4.4534,4.4605,4.4599,4.4714,4.4732,4.4734,4.4731,4.4738,4.4737,4.4763,4.475,4.4723,4.4722,4.472,4.4719,0,4.4224,4.4221,4.4348,4.4379,4.439,4.4477,4.4504,4.4573,4.4576,4.4672,4.4694,4.47,4.4781,4.4776,4.4869,4.4864,4.5005,4.4988,4.499,4.4985,4.5079,4.507,4.5387,4.5426,4.515,4.5153,4.5155,0,4.4367,4.445,4.4489,4.4536,4.4561,4.4637,4.4682,4.4664,4.4713,4.4767,4.483,4.4906,4.4967,4.5098,4.5111,4.518,4.5163,4.5269,4.5174,4.5176,4.5163,4.5157,4.5165,4.5288,4.5291,4.5294,4.5296,0,4.4622,4.4615,4.4681,4.4747,4.4801,4.4852,4.4898,4.4939,4.4925,4.4982,4.5063,4.5109,4.5202,4.5278,4.5343,4.5365,4.5329,4.5326,4.5351,4.5358,4.5355,4.5356,4.504,4.5319,4.5317,4.5315,4.5314,4.5313,4.4807,4.4876,4.4913,4.4988,4.502,4.5063,4.5129,4.5139,4.5206,4.5279,4.5264,4.5355,4.5394,4.5478,4.5506,4.5576,4.5538,4.5575,4.5584,4.5593,4.5603,4.5344,4.5588,4.5588,4.5587,4.5586,4.5586,0,4.5058,4.5078,4.5146,4.5211,4.5269,4.5227,4.5275,4.5326,4.5406,4.5445,4.5504,4.5596,4.5669,4.5686,4.5755,4.5808,4.5792,4.5826,4.5822,4.5827,4.5634,4.5604,4.5837,4.5837,4.5837,4.5837,4.5837,4.5837,4.5195,4.5309,4.5306,4.5435,4.5455,4.5542,4.5573,4.5612,4.5643,4.5746,4.5806,4.5816,4.5846,4.5916,4.598,4.5983,4.601,4.605,4.6047,4.5866,4.5841,4.5817,4.5789,4.6057,4.6057,4.6233,4.6235,4.6236]},{"header":{"parameterUnit":"m.s-1","parameterCategory":1,"la1":30.2991,"la2":30.254,"lo1":-89.0895,"lo2":-89.0444,"dy":0.0017,"dx":0.0017,"nx":28,"ny":28,"refTime":"2025-07-08T09:00:00:Z","depth":0,"parameterNumber":3,"parameterNumberName":"V-component_of_WINDS"},"data":[0,0,0,0,0,0,0,0,0,0,0,0,0,0,0,0,0,0,0,0,0,0,0,0,0,0,0,0,0,0,0,0,0,0,0,0,0,0,0,0,0,0,0,0,0,0,0,0,0,0,0,0,0,0,0,0,0,0,0.8997,0.8997,0,0.8975,0.8975,0.8975,0.8979,0.898,0.898,0.898,0.8957,0.8956,0.8955,0,0,0,0,0,0,0,0,0,0,0,0,0,0.9038,0.9037,0.8997,0.8997,0.8996,0.8975,0.8975,0.8975,0.8979,0.898,0.898,0.8981,0.8958,0.8956,0.8955,0,0,0,0,0,0,0,0,0,0,0,0,0,0.9019,0.9037,0.8997,0.8996,0.8996,0.8975,0.8975,0.8974,0.8979,0.898,0.898,0.8981,0.8958,0.8956,0.8955,0.8934,0,0,0.895,0.895,0,0,0,0,0,0,0,0,0.902,0.9017,0.8996,0.8996,0.8996,0.8981,0.8981,0.8961,0.8979,0.8985,0.898,0.8981,0.8964,0.8962,0.8957,0.8933,0.8932,0.895,0.8949,0.8949,0.8948,0,0,0,0,0,0,0,0.9021,0.9018,0.8988,0.8996,0.8996,0.8995,0.8993,0.8977,0.8972,0.8985,0.8985,0.8983,0.8964,0.8958,0.8956,0.8931,0.895,0.8949,0.8948,0.8948,0.8883,0.8883,0,0,0,0,0,0,0.9023,0.9019,0.8989,0.8988,0.9009,0.8994,0.8992,0.8985,0.8972,0.8971,0.8982,0.8983,0.8961,0.8958,0.8956,0.8927,0.8949,0.8947,0.8947,0.8884,0.8883,0.8882,0,0,0,0,0,0,0.9024,0.902,0.899,0.9003,0.8999,0.8993,0.8985,0.8984,0.8978,0.897,0.8969,0.8977,0.8961,0.8958,0.8938,0.8926,0.8947,0.8945,0.8885,0.8884,0.8883,0.8871,0,0,0,0,0,0,0.9025,0.9021,0.9014,0.9003,0.8999,0.8974,0.8984,0.8983,0.8976,0.8977,0.8965,0.8964,0.8961,0.894,0.8937,0.8925,0.8944,0.8886,0.8885,0.8883,0.8873,0.887,0.8867,0,0,0,0,0,0.9027,0.9012,0.9013,0.901,0.899,0.8973,0.8971,0.8969,0.8975,0.8967,0.896,0.8964,0.8928,0.8938,0.8934,0.8922,0.8887,0.8885,0.8883,0.8874,0.887,0.8867,0,0,0,0,0,0,0.9023,0.9011,0.9012,0.8994,0.8985,0.8974,0.8964,0.8965,0.8954,0.8955,0.8952,0.8949,0.8929,0.8923,0.8935,0.8898,0.8908,0.8905,0.8903,0.8899,0.8897,0.8898,0.8943,0,0,0,0,0,0.9019,0.9008,0.8998,0.8983,0.8978,0.8972,0.8964,0.8963,0.8953,0.8949,0.8942,0.8931,0.8916,0.8908,0.8895,0.8872,0.8867,0.886,0.8858,0.8856,0.8853,0.8837,0.8833,0.8876,0.8876,0.8876,0,0,0.9013,0.9005,0.8998,0.8982,0.8974,0.896,0.8968,0.8954,0.8943,0.8947,0.8927,0.8921,0.8908,0.8886,0.8876,0.8881,0.884,0.8853,0.8852,0.885,0.8835,0.883,0.8827,0.8875,0.8875,0.8875,0,0,0.8995,0.8988,0.8974,0.8965,0.8953,0.8948,0.8944,0.8932,0.8928,0.8908,0.8909,0.8895,0.8872,0.8862,0.8854,0.8826,0.8828,0.8822,0.8808,0.8792,0.8789,0.8785,0.8773,0.8769,0.8819,0.8819,0.8819,0,0.8988,0.8969,0.8966,0.895,0.8942,0.8942,0.8926,0.8917,0.8902,0.8895,0.89,0.8868,0.886,0.8833,0.8826,0.882,0.8814,0.8823,0.8789,0.8786,0.8783,0.8771,0.8767,0.8819,0.8819,0.8819,0.8819,0,0.896,0.8946,0.8935,0.8918,0.8908,0.8893,0.8885,0.8875,0.8873,0.8867,0.8844,0.8834,0.8817,0.8811,0.881,0.8783,0.8786,0.879,0.8801,0.8778,0.8767,0.8763,0.8818,0.8818,0.8818,0.8818,0,0,0.8942,0.892,0.8916,0.8907,0.8891,0.888,0.8862,0.8845,0.8834,0.8822,0.8806,0.8784,0.8787,0.8777,0.8774,0.8761,0.8735,0.8766,0.8766,0.8759,0.8701,0.8697,0.8692,0.8736,0.8735,0.8734,0.8701,0,0.892,0.889,0.8885,0.8858,0.8842,0.8841,0.8825,0.8812,0.8805,0.8789,0.8781,0.8765,0.8771,0.8765,0.8751,0.8741,0.8723,0.8744,0.8719,0.8718,0.8721,0.8686,0.8683,0.8652,0.8697,0.8696,0.8696,0,0.8893,0.8878,0.8849,0.8831,0.8825,0.8811,0.8792,0.8778,0.8762,0.8758,0.8745,0.8742,0.8721,0.8732,0.8701,0.8715,0.8704,0.8697,0.8696,0.8693,0.8705,0.8681,0.8643,0.8638,0.8689,0.869,0.869,0,0.8879,0.8852,0.8831,0.8823,0.8802,0.8792,0.8783,0.8767,0.8756,0.8739,0.8731,0.8712,0.8701,0.8685,0.8677,0.8686,0.8645,0.8656,0.8639,0.8639,0.8631,0.8632,0.8589,0.8626,0.8626,0.8626,0.8626,0,0.8856,0.8838,0.8824,0.8811,0.8789,0.8781,0.8759,0.875,0.8735,0.8718,0.8715,0.8699,0.8689,0.867,0.8663,0.8637,0.8633,0.8627,0.8625,0.8627,0.8627,0.8619,0.8621,0.8625,0.8625,0.8625,0.8625,0,0.8839,0.8829,0.8804,0.8785,0.878,0.8764,0.8747,0.8733,0.8724,0.8702,0.8696,0.8682,0.8659,0.8649,0.8622,0.8617,0.8586,0.8586,0.8591,0.859,0.8573,0.8574,0.8524,0.8515,0.8558,0.8558,0.8557,0,0.8825,0.881,0.8789,0.8777,0.8767,0.8748,0.8735,0.8726,0.8712,0.869,0.8677,0.8655,0.8636,0.8599,0.8586,0.8564,0.8562,0.8546,0.8559,0.856,0.856,0.856,0.8557,0.8544,0.8543,0.8543,0.8543,0,0.88,0.8794,0.8777,0.8755,0.874,0.8723,0.8706,0.8696,0.8683,0.8668,0.8644,0.863,0.86,0.8576,0.8552,0.8541,0.8538,0.8538,0.8533,0.8534,0.8537,0.8533,0.8583,0.854,0.854,0.854,0.854,0.8541,0.8782,0.8768,0.8749,0.8728,0.8714,0.8697,0.8681,0.8669,0.8649,0.8624,0.8619,0.8593,0.8572,0.854,0.8527,0.8505,0.8509,0.8502,0.8499,0.8497,0.8495,0.854,0.8501,0.8501,0.8501,0.8501,0.8501,0,0.8756,0.8743,0.8723,0.8699,0.8681,0.8679,0.8659,0.8644,0.8622,0.8603,0.8583,0.8554,0.8529,0.8512,0.8486,0.8472,0.847,0.8465,0.8466,0.8463,0.8495,0.8501,0.8467,0.8467,0.8467,0.8467,0.8467,0.8467,0.874,0.8714,0.8706,0.8671,0.8658,0.8632,0.862,0.8603,0.8588,0.8555,0.8534,0.8523,0.8503,0.8475,0.8452,0.8447,0.8437,0.8432,0.8427,0.8457,0.8461,0.8464,0.847,0.843,0.843,0.8397,0.8396,0.8396]}]]